[[{"header":{"parameterUnit":"m.s-1","parameterCategory":1,"la1":30.2991,"la2":30.254,"lo1":-89.0895,"lo2":-89.0444,"dy":0.0017,"dx":0.0017,"nx":28,"ny":28,"refTime":"2023-10-30T21:00:00:Z","depth":0,"parameterNumber":2,"parameterNumberName":"U-component_of_WINDS"},"data":[0,0,0,0,0,0,0,0,0,0,0,0,0,0,0,0,0,0,0,0,0,0,0,0,0,0,0,0,0,0,0,0,0,0,0,0,0,0,0,0,0,0,0,0,0,0,0,0,0,0,0,0,0,0,0,0,0,0,0.1679,0.1678,0,0.1599,0.1598,0.1597,0.1586,0.1586,0.1587,0.1588,0.1503,0.1501,0.1498,0,0,0,0,0,0,0,0,0,0,0,0,0,0.1823,0.182,0.1679,0.1678,0.1677,0.1599,0.1598,0.1597,0.1586,0.1586,0.1587,0.1588,0.1504,0.1501,0.1497,0,0,0,0,0,0,0,0,0,0,0,0,0,0.1753,0.1819,0.1679,0.1662,0.166,0.1599,0.1598,0.1596,0.1585,0.1586,0.1588,0.1589,0.1506,0.1501,0.1497,0.1447,0,0,0.1483,0.1481,0,0,0,0,0,0,0,0,0.1757,0.1748,0.1666,0.1663,0.1661,0.1603,0.1617,0.1546,0.1585,0.1614,0.1588,0.1589,0.1536,0.1529,0.1511,0.1443,0.1439,0.1483,0.148,0.1478,0.1477,0,0,0,0,0,0,0,0.1762,0.1751,0.1647,0.1665,0.1662,0.1658,0.165,0.1604,0.1569,0.1611,0.161,0.1601,0.1534,0.1515,0.1509,0.1438,0.1483,0.1479,0.1476,0.1475,0.1325,0.1324,0,0,0,0,0,0,0.177,0.1755,0.165,0.1645,0.1713,0.1655,0.1645,0.1621,0.157,0.1563,0.16,0.1601,0.1522,0.1514,0.1506,0.1444,0.1478,0.1474,0.1472,0.1326,0.1324,0.1323,0,0,0,0,0,0,0.1773,0.1761,0.1653,0.17,0.1686,0.1651,0.1624,0.1618,0.1599,0.1561,0.1555,0.1587,0.1523,0.1512,0.1462,0.1441,0.1472,0.1468,0.1328,0.1326,0.1324,0.1319,0,0,0,0,0,0,0.1777,0.1762,0.1743,0.1699,0.1683,0.161,0.1622,0.1616,0.1592,0.1592,0.1547,0.1541,0.1523,0.1468,0.1457,0.1435,0.1465,0.1329,0.1327,0.1324,0.1321,0.1317,0.1314,0,0,0,0,0,0.1782,0.1744,0.1742,0.1729,0.1659,0.1609,0.16,0.1581,0.159,0.157,0.1546,0.1542,0.1445,0.1463,0.1451,0.1427,0.1331,0.1327,0.1325,0.1322,0.1318,0.1314,0,0,0,0,0,0,0.1784,0.1738,0.1735,0.1681,0.1649,0.1607,0.1581,0.1576,0.154,0.1542,0.1519,0.1509,0.146,0.1438,0.1459,0.1376,0.1389,0.1383,0.1391,0.1387,0.1383,0.1388,0.1461,0,0,0,0,0,0.1779,0.1743,0.1704,0.1661,0.1645,0.1616,0.1594,0.1582,0.1548,0.1534,0.1506,0.1472,0.1434,0.141,0.1372,0.1318,0.1308,0.1296,0.1292,0.129,0.1284,0.1254,0.1248,0.1313,0.1313,0.1313,0,0,0.1766,0.1736,0.1715,0.166,0.1634,0.1597,0.1605,0.1565,0.1537,0.1528,0.1478,0.1457,0.1418,0.1365,0.1341,0.1346,0.1265,0.1286,0.1284,0.128,0.1251,0.1244,0.1239,0.1311,0.1312,0.1312,0,0,0.1724,0.1699,0.1659,0.1633,0.1594,0.1576,0.1566,0.1525,0.1511,0.1461,0.1454,0.142,0.1355,0.1328,0.1306,0.1255,0.125,0.1244,0.1225,0.1196,0.1191,0.1186,0.1167,0.1161,0.1239,0.1239,0.1239,0,0.1713,0.1657,0.164,0.16,0.1576,0.1568,0.1528,0.1503,0.1454,0.1437,0.1444,0.1363,0.1336,0.1277,0.1265,0.1248,0.1236,0.1248,0.1193,0.1188,0.1183,0.1165,0.1159,0.1239,0.1239,0.1239,0.1239,0,0.1646,0.1607,0.158,0.1534,0.1507,0.1468,0.1444,0.1419,0.141,0.1391,0.134,0.1308,0.1265,0.125,0.1241,0.119,0.1195,0.1198,0.121,0.1177,0.116,0.1153,0.1238,0.1238,0.1238,0.1238,0,0,0.16,0.1546,0.1536,0.1515,0.1472,0.1441,0.1402,0.136,0.1339,0.1306,0.1272,0.1218,0.1221,0.1196,0.1183,0.1158,0.112,0.1164,0.1163,0.1156,0.1062,0.1058,0.1051,0.1117,0.1116,0.1115,0.1065,0,0.1553,0.1482,0.1466,0.1405,0.1369,0.1361,0.1327,0.1297,0.1278,0.1245,0.1225,0.1187,0.1194,0.1178,0.1153,0.113,0.11,0.1134,0.1085,0.1083,0.1093,0.1042,0.1038,0.0992,0.1058,0.1057,0.1056,0,0.1487,0.1453,0.1389,0.1351,0.1336,0.1305,0.1266,0.1234,0.12,0.1189,0.1161,0.1152,0.1111,0.1127,0.1069,0.1092,0.1072,0.1057,0.1055,0.1048,0.1066,0.1033,0.0977,0.097,0.1045,0.1046,0.1047,0,0.1459,0.1398,0.1351,0.1334,0.1289,0.1268,0.1248,0.1215,0.1191,0.1157,0.1141,0.1103,0.1081,0.1052,0.1032,0.1046,0.0976,0.099,0.0965,0.0965,0.0949,0.095,0.0888,0.0938,0.0938,0.0938,0.0938,0,0.1406,0.1367,0.1338,0.131,0.1266,0.1248,0.1205,0.1185,0.1156,0.1124,0.1115,0.1084,0.1061,0.1028,0.1013,0.0967,0.0958,0.0947,0.0943,0.0947,0.0948,0.0931,0.0934,0.0936,0.0937,0.0937,0.0937,0,0.1367,0.1346,0.1295,0.1258,0.1247,0.1217,0.1184,0.1156,0.1139,0.1097,0.1087,0.1058,0.1018,0.0997,0.0947,0.0936,0.0885,0.0884,0.0897,0.0895,0.087,0.0872,0.0794,0.0782,0.0842,0.0841,0.0841,0,0.1334,0.1304,0.1263,0.1241,0.1221,0.1186,0.1162,0.1143,0.1119,0.1079,0.1055,0.1015,0.0982,0.0919,0.0893,0.0855,0.0852,0.0827,0.0846,0.0851,0.085,0.0852,0.0848,0.0823,0.0823,0.0822,0.0822,0,0.1277,0.1269,0.1235,0.1197,0.1169,0.1139,0.1108,0.1091,0.1068,0.104,0.1,0.0974,0.0924,0.0884,0.0844,0.0824,0.0818,0.0817,0.0809,0.0811,0.082,0.0814,0.0886,0.0818,0.0818,0.0819,0.0819,0.0819,0.1239,0.1212,0.118,0.1142,0.1118,0.109,0.1062,0.1042,0.1008,0.0965,0.0957,0.0914,0.0882,0.0828,0.0806,0.0773,0.0777,0.0766,0.0762,0.0759,0.0758,0.0827,0.0765,0.0765,0.0766,0.0766,0.0766,0,0.1181,0.116,0.1126,0.1085,0.1055,0.1055,0.1022,0.0997,0.096,0.093,0.0898,0.0852,0.0814,0.0786,0.0747,0.0726,0.0722,0.0716,0.0716,0.0712,0.0756,0.0767,0.0719,0.0719,0.0719,0.0719,0.0719,0.0719,0.1147,0.1101,0.1089,0.1032,0.1011,0.097,0.0951,0.0925,0.0902,0.0851,0.0819,0.0802,0.0773,0.0732,0.0697,0.069,0.0676,0.0669,0.0662,0.0704,0.0709,0.0713,0.0723,0.0667,0.0667,0.062,0.062,0.0619]},{"header":{"parameterUnit":"m.s-1","parameterCategory":1,"la1":30.2991,"la2":30.254,"lo1":-89.0895,"lo2":-89.0444,"dy":0.0017,"dx":0.0017,"nx":28,"ny":28,"refTime":"2023-10-30T21:00:00:Z","depth":0,"parameterNumber":3,"parameterNumberName":"V-component_of_WINDS"},"data":[0,0,0,0,0,0,0,0,0,0,0,0,0,0,0,0,0,0,0,0,0,0,0,0,0,0,0,0,0,0,0,0,0,0,0,0,0,0,0,0,0,0,0,0,0,0,0,0,0,0,0,0,0,0,0,0,0,0,-7.8158,-7.8159,0,-7.8298,-7.83,-7.8302,-7.823,-7.8226,-7.8222,-7.8219,-7.8355,-7.8362,-7.8369,0,0,0,0,0,0,0,0,0,0,0,0,0,-7.7819,-7.7826,-7.8158,-7.8159,-7.8161,-7.8298,-7.83,-7.8302,-7.823,-7.8226,-7.8221,-7.8217,-7.8353,-7.8361,-7.837,0,0,0,0,0,0,0,0,0,0,0,0,0,-7.7963,-7.7828,-7.8157,-7.8142,-7.8142,-7.8298,-7.83,-7.8303,-7.8231,-7.8226,-7.822,-7.8215,-7.835,-7.8361,-7.8371,-7.8548,0,0,-7.8404,-7.8408,0,0,0,0,0,0,0,0,-7.7955,-7.7976,-7.8142,-7.8143,-7.8144,-7.8241,-7.8231,-7.8384,-7.8233,-7.8197,-7.8219,-7.8212,-7.8321,-7.8334,-7.8372,-7.8554,-7.856,-7.8404,-7.8411,-7.8415,-7.8418,0,0,0,0,0,0,0,-7.7945,-7.7969,-7.8213,-7.8145,-7.8146,-7.8126,-7.814,-7.826,-7.8288,-7.82,-7.8195,-7.8213,-7.832,-7.8362,-7.8375,-7.8562,-7.8404,-7.8414,-7.842,-7.8424,-7.8895,-7.8901,0,0,0,0,0,0,-7.7937,-7.7962,-7.8209,-7.8217,-7.8034,-7.8136,-7.8152,-7.8215,-7.8287,-7.8293,-7.8218,-7.8209,-7.8347,-7.8363,-7.8379,-7.8591,-7.8415,-7.8425,-7.8431,-7.8889,-7.8896,-7.8903,0,0,0,0,0,0,-7.793,-7.796,-7.8203,-7.8088,-7.8118,-7.8148,-7.8219,-7.8221,-7.8263,-7.83,-7.8304,-7.8256,-7.8343,-7.8364,-7.8507,-7.8595,-7.843,-7.844,-7.8882,-7.8891,-7.8899,-7.9015,0,0,0,0,0,0,-7.7921,-7.7958,-7.8027,-7.8091,-7.8124,-7.8331,-7.8225,-7.8228,-7.8282,-7.8272,-7.8337,-7.8342,-7.834,-7.8491,-7.8517,-7.8606,-7.8448,-7.8874,-7.8886,-7.8897,-7.9004,-7.9027,-7.9048,0,0,0,0,0,-7.7909,-7.8053,-7.8031,-7.8061,-7.8212,-7.8336,-7.8355,-7.8352,-7.829,-7.8358,-7.8382,-7.834,-7.8581,-7.8507,-7.8535,-7.8629,-7.8868,-7.8882,-7.8896,-7.8994,-7.9023,-7.9047,0,0,0,0,0,0,-7.7996,-7.8061,-7.8037,-7.8206,-7.8267,-7.8323,-7.841,-7.8382,-7.8459,-7.8447,-7.8437,-7.8452,-7.86,-7.8628,-7.8544,-7.8803,-7.8714,-7.8735,-7.8779,-7.8807,-7.8828,-7.8818,-7.8457,0,0,0,0,0,-7.8035,-7.8133,-7.8183,-7.8327,-7.8359,-7.838,-7.8433,-7.8426,-7.8487,-7.8511,-7.8546,-7.8604,-7.8693,-7.8751,-7.8835,-7.9007,-7.902,-7.9086,-7.9107,-7.9125,-7.9143,-7.9235,-7.9265,-7.8948,-7.8948,-7.8948,0,0,-7.8117,-7.8164,-7.8226,-7.8346,-7.8392,-7.8491,-7.8401,-7.851,-7.8583,-7.8527,-7.8664,-7.8692,-7.8756,-7.8914,-7.8985,-7.8942,-7.9233,-7.9143,-7.9157,-7.9164,-7.9252,-7.9282,-7.9309,-7.8957,-7.8956,-7.8954,0,0,-7.8316,-7.8362,-7.8487,-7.8536,-7.8607,-7.862,-7.865,-7.8712,-7.8729,-7.8867,-7.8827,-7.8911,-7.9065,-7.9112,-7.9157,-7.9374,-7.9338,-7.9401,-7.9515,-7.9606,-7.9631,-7.9653,-7.973,-7.9758,-7.9419,-7.9419,-7.9419,0,-7.8407,-7.8558,-7.8554,-7.8667,-7.8721,-7.8677,-7.8802,-7.8848,-7.8942,-7.8979,-7.893,-7.9121,-7.9161,-7.933,-7.9383,-7.9421,-7.9453,-7.9394,-7.9628,-7.965,-7.967,-7.9744,-7.9773,-7.9426,-7.9425,-7.9425,-7.9424,0,-7.8666,-7.8771,-7.8863,-7.8959,-7.9022,-7.914,-7.9153,-7.9217,-7.9204,-7.9221,-7.9362,-7.9409,-7.9501,-7.954,-7.9528,-7.9707,-7.9678,-7.9629,-7.954,-7.9708,-7.9777,-7.9805,-7.9437,-7.9434,-7.9432,-7.943,0,0,-7.8924,-7.9017,-7.9051,-7.9093,-7.9169,-7.9248,-7.9364,-7.9457,-7.9512,-7.9578,-7.9673,-7.9804,-7.9759,-7.981,-7.9802,-7.9881,-8.005,-7.9822,-7.9823,-7.9862,-8.025,-8.0287,-8.0319,-8.0027,-8.0032,-8.0036,-8.0244,0,-7.9128,-7.9334,-7.9334,-7.9523,-7.9619,-7.9579,-7.9679,-7.9735,-7.9754,-7.9836,-7.9856,-7.9949,-7.9883,-7.9913,-7.999,-8.0013,-8.0128,-7.9998,-8.0113,-8.0118,-8.0099,-8.0355,-8.0395,-8.0589,-8.0271,-8.0276,-8.0279,0,-7.9394,-7.9472,-7.9672,-7.9733,-7.9774,-7.9864,-7.9949,-8.0029,-8.0091,-8.0099,-8.0156,-8.0136,-8.0251,-8.0159,-8.0316,-8.0229,-8.0275,-8.0294,-8.0301,-8.0312,-8.0209,-8.0372,-8.0651,-8.068,-8.0321,-8.0318,-8.0315,0,-7.9562,-7.9717,-7.9856,-7.9893,-7.9969,-8.0033,-8.0067,-8.0124,-8.018,-8.0253,-8.0289,-8.0374,-8.042,-8.0485,-8.0487,-8.042,-8.0646,-8.0554,-8.0655,-8.0655,-8.0704,-8.0701,-8.0994,-8.0735,-8.0734,-8.0734,-8.0733,0,-7.9791,-7.9914,-7.9932,-8.0018,-8.0154,-8.0152,-8.0286,-8.0313,-8.0364,-8.0453,-8.0422,-8.0505,-8.0503,-8.0587,-8.0589,-8.0719,-8.074,-8.0748,-8.0747,-8.0751,-8.075,-8.0781,-8.0768,-8.0741,-8.074,-8.0738,-8.0737,0,-8.0001,-8.0019,-8.0168,-8.0228,-8.0246,-8.0344,-8.0394,-8.0474,-8.049,-8.0602,-8.0628,-8.0654,-8.0751,-8.076,-8.0871,-8.0873,-8.103,-8.1014,-8.101,-8.1007,-8.1107,-8.1097,-8.143,-8.1473,-8.1186,-8.1189,-8.1191,0,-8.0146,-8.024,-8.0311,-8.037,-8.0408,-8.0502,-8.056,-8.056,-8.0621,-8.0699,-8.0769,-8.0864,-8.094,-8.1096,-8.1122,-8.1207,-8.1193,-8.1304,-8.1206,-8.1207,-8.1195,-8.1189,-8.1198,-8.1323,-8.1326,-8.1329,-8.1331,0,-8.0401,-8.0405,-8.049,-8.058,-8.065,-8.0719,-8.0784,-8.0833,-8.0841,-8.091,-8.1011,-8.107,-8.1185,-8.1279,-8.1363,-8.1394,-8.1364,-8.1362,-8.1389,-8.1394,-8.1388,-8.1393,-8.1062,-8.1354,-8.1352,-8.135,-8.1349,-8.1348,-8.0582,-8.0665,-8.0728,-8.0824,-8.0873,-8.0935,-8.1014,-8.1041,-8.1125,-8.1221,-8.1216,-8.1326,-8.1384,-8.1494,-8.1532,-8.1617,-8.1579,-8.1619,-8.1629,-8.1639,-8.165,-8.1375,-8.1632,-8.1631,-8.163,-8.163,-8.1629,0,-8.0835,-8.0874,-8.0963,-8.1056,-8.1132,-8.1099,-8.1169,-8.1233,-8.1332,-8.139,-8.1466,-8.1581,-8.1671,-8.1706,-8.1793,-8.1855,-8.1843,-8.1878,-8.1873,-8.1881,-8.1678,-8.1646,-8.1886,-8.1886,-8.1886,-8.1886,-8.1885,-8.1885,-8.0976,-8.1113,-8.1125,-8.1285,-8.1322,-8.1433,-8.1476,-8.1531,-8.1578,-8.1708,-8.1785,-8.1807,-8.1855,-8.1946,-8.2027,-8.2035,-8.2068,-8.2109,-8.211,-8.1921,-8.1895,-8.187,-8.1839,-8.2116,-8.2117,-8.2306,-8.2307,-8.2309]}]]